[[{"header":{"parameterUnit":"m.s-1","parameterCategory":1,"la1":30.2992,"la2":30.254,"lo1":-89.0895,"lo2":-89.0443,"dy":0.0025,"dx":0.0025,"nx":19,"ny":19,"refTime":"2026-05-16T09:00:00:Z","depth":0,"parameterNumber":2,"parameterNumberName":"U-component_of_WINDS"},"data":[0,0,0,-1.467,-1.467,-1.4691,-1.4691,-1.4719,-1.472,0,0,0,0,0,0,0,0,0,0,0,-1.4663,-1.4664,-1.467,-1.467,-1.4691,-1.4691,-1.4719,-1.472,0,0,0,0,0,0,0,0,0,0,0,-1.4663,-1.4664,-1.4664,-1.467,-1.4691,-1.4691,-1.4719,-1.4703,0,0,0,0,0,0,0,0,0,0,-1.4683,-1.4676,-1.4663,-1.4664,-1.467,-1.4691,-1.4691,-1.4702,-1.4704,-1.471,0,-1.4715,0,-1.4718,-1.4722,-1.4722,0,0,0,-1.4671,-1.4675,-1.4681,-1.4664,-1.4671,-1.4691,-1.4682,-1.4703,-1.4705,-1.4713,-1.4715,-1.4716,-1.4718,-1.4722,-1.4722,-1.4753,-1.4753,0,0,-1.4669,-1.4667,-1.4679,-1.4682,-1.4678,-1.4681,-1.4682,-1.4705,-1.4707,-1.4715,-1.4717,-1.4718,-1.4722,-1.4722,-1.4753,-1.4753,0,0,0,-1.4666,-1.4666,-1.4672,-1.4681,-1.4684,-1.4682,-1.4683,-1.4706,-1.4708,-1.4717,-1.4719,-1.4722,-1.4722,-1.4753,-1.4753,-1.4757,0,0,0,-1.4665,-1.4664,-1.4671,-1.467,-1.4684,-1.4695,-1.4685,-1.4707,-1.4709,-1.4719,-1.4722,-1.4723,-1.4753,-1.4753,-1.4756,-1.4759,0,0,0,-1.4662,-1.4664,-1.4667,-1.467,-1.4679,-1.4695,-1.4698,-1.4707,-1.471,-1.4722,-1.4723,-1.4753,-1.4753,-1.4756,-1.4758,-1.4766,0,0,0,-1.4658,-1.467,-1.4667,-1.4681,-1.4678,-1.4697,-1.4698,-1.4713,-1.4723,-1.4722,-1.4753,-1.4753,-1.4756,-1.4758,-1.4766,-1.4772,-1.4774,0,0,-1.4672,-1.4671,-1.468,-1.4678,-1.4696,-1.4694,-1.4714,-1.4726,-1.4729,-1.4745,-1.4746,-1.4757,-1.4758,-1.4766,-1.479,-1.4792,0,0,0,-1.4683,-1.4689,-1.4695,-1.4704,-1.4713,-1.4721,-1.473,-1.4735,-1.4749,-1.4737,-1.4762,-1.4763,-1.4768,-1.4771,-1.4772,-1.4777,-1.4755,-1.4755,-1.4755,-1.4698,-1.4702,-1.4717,-1.4723,-1.4732,-1.4742,-1.475,-1.4758,-1.4759,-1.4766,-1.477,-1.4784,-1.4787,-1.4789,-1.4793,-1.4774,-1.4774,-1.4774,-1.4774,-1.4718,-1.4727,-1.4729,-1.4744,-1.4748,-1.4761,-1.4771,-1.4772,-1.4785,-1.4781,-1.4785,-1.4779,-1.4791,-1.4795,-1.4775,-1.4775,-1.4774,-1.4774,-1.4774,-1.4728,-1.4733,-1.4738,-1.4752,-1.4763,-1.477,-1.4783,-1.4787,-1.4791,-1.4795,-1.48,-1.48,-1.48,-1.4797,-1.4798,-1.4798,-1.4798,-1.4798,-1.4798,-1.4736,-1.4741,-1.4751,-1.4762,-1.4769,-1.4779,-1.4789,-1.4796,-1.4806,-1.4808,-1.4808,-1.4809,-1.4791,-1.4786,-1.4798,-1.4798,-1.4798,-1.4798,-1.4798,-1.4753,-1.475,-1.4764,-1.4771,-1.4785,-1.4796,-1.4801,-1.4816,-1.4822,-1.4829,-1.4829,-1.4816,-1.4816,-1.4815,-1.4811,-1.4828,-1.4828,-1.4828,-1.4828,-1.4761,-1.4761,-1.4777,-1.4788,-1.4799,-1.4806,-1.4823,-1.4832,-1.4841,-1.4846,-1.4844,-1.484,-1.4838,-1.4839,-1.4837,-1.4834,-1.4857,-1.4857,-1.4857,-1.4772,-1.4774,-1.4787,-1.4795,-1.4806,-1.4817,-1.4833,-1.4846,-1.4856,-1.4858,-1.485,-1.4848,-1.4841,-1.4838,-1.4839,-1.4836,-1.4829,0,0]},{"header":{"parameterUnit":"m.s-1","parameterCategory":1,"la1":30.2992,"la2":30.254,"lo1":-89.0895,"lo2":-89.0443,"dy":0.0025,"dx":0.0025,"nx":19,"ny":19,"refTime":"2026-05-16T09:00:00:Z","depth":0,"parameterNumber":3,"parameterNumberName":"V-component_of_WINDS"},"data":[0,0,0,4.9694,4.9695,4.9714,4.9714,4.9741,4.9741,0,0,0,0,0,0,0,0,0,0,0,4.969,4.969,4.9694,4.9695,4.9714,4.9714,4.9741,4.9741,0,0,0,0,0,0,0,0,0,0,0,4.969,4.969,4.9691,4.9695,4.9714,4.9714,4.9741,4.9725,0,0,0,0,0,0,0,0,0,0,4.9706,4.9704,4.969,4.9691,4.9695,4.9714,4.9714,4.9724,4.9726,4.9733,0,4.974,0,4.9741,4.9743,4.9743,0,0,0,4.9693,4.9702,4.9706,4.9691,4.9695,4.9714,4.9705,4.9725,4.9727,4.9735,4.974,4.9741,4.9742,4.9743,4.9743,4.979,4.979,0,0,4.9692,4.9694,4.9705,4.9708,4.9706,4.9704,4.9705,4.9726,4.9732,4.974,4.9742,4.9742,4.9743,4.9744,4.979,4.979,0,0,0,4.969,4.9693,4.9697,4.9707,4.971,4.9705,4.9706,4.9731,4.9732,4.9742,4.9742,4.9744,4.9744,4.979,4.979,4.9808,0,0,0,4.9689,4.9692,4.9696,4.9698,4.971,4.9721,4.971,4.973,4.9733,4.9742,4.9744,4.9744,4.9789,4.979,4.9806,4.9816,0,0,0,4.9688,4.9692,4.9696,4.9698,4.9706,4.972,4.9723,4.9731,4.9733,4.9743,4.9744,4.9789,4.979,4.9805,4.9814,4.983,0,0,0,4.9687,4.971,4.9696,4.9721,4.9706,4.9731,4.9722,4.974,4.9751,4.9744,4.9789,4.979,4.9805,4.9813,4.9828,4.9844,4.985,0,0,4.9717,4.9713,4.9728,4.9716,4.9744,4.9728,4.9758,4.9766,4.9764,4.9781,4.9782,4.9807,4.9814,4.9829,4.9884,4.9889,0,0,0,4.9738,4.9749,4.9756,4.9767,4.9774,4.978,4.9783,4.9786,4.9801,4.9774,4.9816,4.982,4.9829,4.9837,4.9841,4.9849,4.9793,4.9793,4.9793,4.9783,4.9781,4.9805,4.9806,4.9816,4.9819,4.9828,4.9832,4.9825,4.9836,4.9841,4.9875,4.9883,4.9887,4.9895,4.9848,4.9848,4.9848,4.9848,4.9827,4.9842,4.9834,4.9856,4.9853,4.987,4.9874,4.9869,4.9884,4.987,4.9878,4.9863,4.9892,4.99,4.985,4.9849,4.9849,4.9849,4.9849,4.9857,4.9864,4.9868,4.9885,4.9898,4.9896,4.9913,4.9909,4.9905,4.9913,4.9919,4.9919,4.9919,4.9916,4.9916,4.9916,4.9917,4.9917,4.9917,4.9888,4.9891,4.9906,4.9916,4.9923,4.9932,4.9935,4.9942,4.9949,4.9945,4.9945,4.9938,4.9895,4.9885,4.9919,4.9918,4.9918,4.9918,4.9918,4.9935,4.9924,4.9946,4.9954,4.9965,4.9979,4.9974,4.9989,4.9994,5.0002,4.9993,4.9962,4.9958,4.9954,4.9946,4.9993,4.9993,4.9993,4.9993,4.9961,4.9959,4.9982,4.9994,5.0005,5.0004,5.0029,5.0032,5.0034,5.0037,5.0029,5.0017,5.0014,5.0012,5.0007,5.0,5.0059,5.0059,5.0059,4.9991,4.999,5.0012,5.0015,5.0024,5.0032,5.0056,5.007,5.0068,5.0062,5.0039,5.0036,5.0018,5.0011,5.0005,4.9998,4.9983,0,0]}]]